Location: Glion
(46.4330°N, 6.9246°E)
Time: 05:03:50
(UTC+00:00)

SAR-Lupe-1 - Pass Details

Date: 03 March 2021
Orbit: 482 x 483 km, 98.2° (Epoch: 30 March)

Event Time Altitude Azimuth Distance (km) Brightness Sun altitude
Rises 18:24:37 0° 15° (NNE) 2,559 7.6 -11.7°
Reaches altitude 10° 18:26:41 10° 17° (NNE) 1,674 6.7 -12.0°
Maximum altitude 18:30:17 77° 104° (ESE) 502 3.9 -12.7°
Drops below altitude 10° 18:33:51 10° 190° (S) 1,659 6.8 -13.3°
Sets 18:35:54 0° 192° (SSW) 2,534 7.8 -13.6°
